Regional Weather Roundup
Issued by NWS

Home | Current Version | Previous Version | Text Only | Print | Product List | Glossary Off
Versions: 1 2 3 4 5 6 7 8 9 10 11 12 13 14 15 16 17 18 19 20 21 22 23 24 25 26 27 28 29 30 31 32 33 34 35 36 37 38 39 40 41 42 43 44 45 46 47 48 49 50

000
ASUS43 KBIS 241859
RWRND

NORTH DAKOTA REGIONAL WEATHER ROUNDUP
NATIONAL WEATHER SERVICE BISMARCK ND
200 PM CDT THU APR 24 2014

NOTE: "FAIR" INDICATES FEW OR NO CLOUDS BELOW 12,000 FEET WITH NO
SIGNIFICANT WEATHER AND/OR OBSTRUCTIONS TO VISIBILITY.


NDZ001>003-009>011-017-242000-
NORTHWEST NORTH DAKOTA

CITY           SKY/WX    TMP DP  RH WIND       PRES   REMARKS
WILLISTON      PTSUNNY   54  32  43 W21G26    29.73F
MINOT          SUNNY     58  35  42 W15G25    29.66F
$$

NDZ018>021-031>035-040>046-242000-
SOUTHWEST NORTH DAKOTA

CITY           SKY/WX    TMP DP  RH WIND       PRES   REMARKS
BISMARCK       MOSUNNY   63  20  19 W16G26    29.70F
DICKINSON      MOSUNNY   59  20  22 NW20G32   29.71F
GARRISON         N/A     59  28  30 W20G32    29.68F
HETTINGER ARPT MOSUNNY   60  18  19 W28G37    29.76F
$$

NDZ004>008-012>016-024-026-027-054-242000-
NORTHEAST NORTH DAKOTA

CITY           SKY/WX    TMP DP  RH WIND       PRES   REMARKS
GRAND FORKS    CLOUDY    43  40  89 S7        29.71F
DEVILS LAKE    MOSUNNY   48  39  71 S5        29.68F
$$

NDZ022-023-025-028>030-036>039-047>053-242000-
SOUTHEAST NORTH DAKOTA

CITY           SKY/WX    TMP DP  RH WIND       PRES   REMARKS
FARGO          CLOUDY    44  41  89 SW7       29.70F FOG
$$




USA.gov is the U.S. government's official web portal to all federal, state and local government web resources and services.